Powrót do katalogu

STARLINK-34480

AktywnyŁącznośćVLEO
NORAD 64427·PAYLOAD·🇺🇸 United States

Wystrzelony Jun 17, 2025 z Vandenberg Space Force Base

Loading…

Następne Przeloty (najbliższe 24 godziny)

TLE

ŚwieżeSource: CelesTrak SupGP

Epoka: Sep 14, 2026, 20:32 UTC

1 64427C 25129R   26257.85604167 -.00028021  00000+0 -97542-3 0  2572
2 64427  69.9997 315.8152 0003199 272.1853 127.4049 15.29571667    16

Śledź STARLINK-34480 w czasie rzeczywistym z AllMySat

Download on the App Store